Weather History for Nashua, NH

Change the Weather History Date:

Wednesday, March 28, 2012

  Actual Average Record
Temperature  
Mean Temperature 44 °F -  
Max Temperature 52 °F 50 °F 87 °F (1998)
Min Temperature 36 °F 26 °F 13 °F (1982)
Degree Days  
Heating Degree Days 21    
Moisture  
Dew Point 25 °F    
Average Humidity 52    
Maximum Humidity 83    
Minimum Humidity 26    
Precipitation  
Precipitation 0.01 in - - ()
Sea Level Pressure  
Sea Level Pressure 29.83 in    
Wind  
Wind Speed 4 mph (SE)    
Max Wind Speed 9 mph    
Max Gust Speed -    
Visibility 9 miles    
Events Rain    
Averages and records for this station are not official NWS values.
T = Trace of Precipitation, MM = Missing Value Source: NWS Daily Summary

Daily Weather History Graph

Daily Weather History Graph

Search for Another Location

Airport:

Trip Planner

Search our weather history database for the weather conditions in past years. The results will help you decide how hot, cold, wet, or windy it might be!

Date:

Astronomy

Mar. 28, 2012 Rise Set
Actual Time 6:34 AM EDT 7:08 PM EDT
Civil Twilight 6:06 AM EDT 7:36 PM EDT
Nautical Twilight 5:32 AM EDT 8:10 PM EDT
Astronomical Twilight 4:57 AM EDT 8:44 PM EDT
Moon 9:41 AM EDT (3/28) 12:14 AM EDT (3/28)
Length of Visible Light 13h 30m
Length of Day
12h 33m
Waxing Crescent, 30% of the Moon is Illuminated
Mar 28
Waxing Crescent
Mar 30
First Quarter
Apr 6
Full
Apr 13
Last Quarter
Apr 21
New

Hourly Weather History & Observations

Time (EDT) Temp. Windchill Dew Point Humidity Pressure Visibility Wind Dir Wind Speed Gust Speed Precip Events Conditions
12:51 AM 36.0 °F 32.1 °F 4.1 °F 26% 30.15 in 10.0 mi NW 4.6 mph - N/A   Clear
1:51 AM 36.0 °F - 8.1 °F 31% 30.10 in 10.0 mi Calm Calm - N/A   Clear
2:51 AM 36.0 °F - 9.1 °F 33% 30.09 in 10.0 mi Calm Calm - N/A   Partly Cloudy
3:51 AM 36.0 °F - 13.1 °F 39% 30.10 in 10.0 mi Calm Calm - N/A   Partly Cloudy
4:51 AM 36.0 °F - 14.0 °F 41% 30.09 in 10.0 mi Calm Calm - N/A   Overcast
5:51 AM 36.0 °F 33.3 °F 16.2 °F 45% 30.07 in 10.0 mi SE 3.5 mph - N/A   Overcast
6:51 AM 36.0 °F 31.1 °F 21.0 °F 55% 30.04 in 10.0 mi SE 5.8 mph - N/A   Overcast
7:39 AM 37.4 °F 32.8 °F 24.8 °F 60% 30.02 in 1.8 mi ESE 5.8 mph - N/A   Haze
7:51 AM 36.9 °F 31.4 °F 22.1 °F 55% 30.02 in 10.0 mi SE 6.9 mph - N/A   Mostly Cloudy
8:51 AM 37.9 °F 34.4 °F 18.1 °F 45% 29.99 in 10.0 mi ESE 4.6 mph - 0.00 in Rain Light Rain
9:51 AM 38.8 °F 32.6 °F 14.0 °F 36% 29.93 in 8.0 mi SSE 9.2 mph - 0.00 in   Mostly Cloudy
10:03 AM 39.2 °F 34.2 °F 15.8 °F 39% 29.90 in 1.8 mi SSE 6.9 mph - 0.00 in Rain Light Rain
10:15 AM 39.2 °F 35.0 °F 15.8 °F 39% 29.90 in 10.0 mi SE 5.8 mph - 0.00 in   Overcast
10:51 AM 41.9 °F 36.9 °F 11.1 °F 28% 29.88 in 10.0 mi SE 8.1 mph - 0.00 in   Overcast
11:51 AM 41.0 °F 36.4 °F 18.1 °F 40% 29.83 in 10.0 mi SE 6.9 mph - 0.00 in Rain Light Rain
12:51 PM 45.0 °F 40.6 °F 25.2 °F 46% 29.78 in 10.0 mi SE 8.1 mph - 0.00 in   Overcast
1:51 PM 48.9 °F - 29.1 °F 46% 29.73 in 10.0 mi Variable 4.6 mph - N/A   Mostly Cloudy
2:51 PM 50.0 °F - 32.9 °F 52% 29.68 in 10.0 mi SSE 4.6 mph - 0.00 in   Mostly Cloudy
3:03 PM 50.0 °F - 33.8 °F 54% 29.65 in 2.5 mi Variable 4.6 mph - N/A   Overcast
3:11 PM 50.0 °F - 35.6 °F 58% 29.65 in 10.0 mi SSW 6.9 mph - N/A   Overcast
3:51 PM 50.9 °F - 36.9 °F 59% 29.64 in 10.0 mi South 6.9 mph - N/A   Overcast
4:51 PM 52.0 °F - 37.9 °F 59% 29.60 in 10.0 mi Variable 4.6 mph - N/A   Mostly Cloudy
5:51 PM 52.0 °F - 37.9 °F 59% 29.58 in 10.0 mi Calm Calm - N/A   Partly Cloudy
6:51 PM 50.0 °F - 41.0 °F 71% 29.59 in 10.0 mi Calm Calm - 0.00 in Rain Light Rain
7:51 PM 46.9 °F - 41.9 °F 83% 29.58 in 10.0 mi Calm Calm - 0.01 in   Mostly Cloudy
8:51 PM 45.0 °F 43.5 °F 38.8 °F 79% 29.61 in 10.0 mi Variable 3.5 mph - 0.00 in Rain Light Rain
9:51 PM 45.0 °F 43.5 °F 37.9 °F 76% 29.59 in 10.0 mi North 3.5 mph - 0.00 in   Mostly Cloudy
10:51 PM 43.9 °F - 37.9 °F 80% 29.58 in 10.0 mi Calm Calm - N/A   Mostly Cloudy
11:51 PM 43.9 °F 42.3 °F 36.9 °F 76% 29.57 in 10.0 mi NNE 3.5 mph - N/A   Overcast